AEHF-4 (USA 288)        
1 43651U 18079A   19265.51485519  .00000104  00000-0  00000+0 0  9999
2 43651   4.4113 311.3933 0004133 251.5673 205.5133  1.00008020  3628
ATLAS 5 CENTAUR R/B     
1 43652U 18079B   19252.91524433 -.00000163  00000-0  00000+0 0  9995
2 43652  11.8882 271.1929 4517793 233.7452  75.3716  1.83407889  6017